FDX1022 MKJS-MKJP

Flight info

Callsign FDX1022
Flight time 0h 32m
Altitude 5000
Route SIA MLY
Aircraft C208/L-VGDW/C

Departure

Time 2026-04-27 03:03
Airport Sangster International Airport (MKJS)

Arrival

Time 2026-04-27 03:36
Airport Norman Manley International Airport (MKJP)
Time Latitude Longitude Altitude Speed Heading
2026-04-27 02:43 18.50374 -77.90684 6 ft 0 kts 64°
2026-04-27 02:50 18.50375 -77.90680 6 ft 1 kts 64°
2026-04-27 02:50 18.50388 -77.90667 6 ft 3 kts 357°
2026-04-27 02:50 18.50404 -77.90674 6 ft 3 kts 333°
2026-04-27 02:50 18.50421 -77.90683 6 ft 3 kts 333°
2026-04-27 02:51 18.50444 -77.90696 6 ft 5 kts 326°
2026-04-27 02:51 18.50436 -77.90740 6 ft 11 kts 245°
2026-04-27 02:51 18.50394 -77.90836 6 ft 17 kts 246°
2026-04-27 02:51 18.50344 -77.90956 6 ft 18 kts 247°
2026-04-27 02:52 18.50294 -77.91075 6 ft 18 kts 246°
2026-04-27 02:52 18.50244 -77.91191 6 ft 17 kts 246°
2026-04-27 02:52 18.50209 -77.91277 6 ft 7 kts 247°
2026-04-27 02:52 18.50202 -77.91295 6 ft 0 kts 247°
2026-04-27 02:53 18.50201 -77.91297 6 ft 3 kts 249°
2026-04-27 02:53 18.50163 -77.91390 6 ft 21 kts 245°
2026-04-27 02:54 18.50101 -77.91535 6 ft 22 kts 245°
2026-04-27 02:54 18.50040 -77.91677 6 ft 21 kts 246°
2026-04-27 02:54 18.49987 -77.91820 6 ft 21 kts 245°
2026-04-27 02:54 18.49928 -77.91958 6 ft 20 kts 247°
2026-04-27 02:55 18.49872 -77.92093 6 ft 20 kts 245°
2026-04-27 02:55 18.49814 -77.92228 6 ft 20 kts 246°
2026-04-27 02:55 18.49759 -77.92360 6 ft 17 kts 253°
2026-04-27 02:55 18.49786 -77.92416 6 ft 4 kts 334°
2026-04-27 02:56 18.49791 -77.92418 6 ft 0 kts 334°
2026-04-27 03:01 18.49792 -77.92419 6 ft 3 kts 334°
2026-04-27 03:02 18.49864 -77.92454 6 ft 12 kts 337°
2026-04-27 03:02 18.49898 -77.92441 6 ft 0 kts 65°
2026-04-27 03:02 18.49944 -77.92336 6 ft 40 kts 68°
2026-04-27 03:02 18.50149 -77.91852 92 ft 91 kts 67°
2026-04-27 03:03 18.50476 -77.91195 301 ft 111 kts 55°
2026-04-27 03:03 18.52050 -77.90999 838 ft 126 kts 354°
2026-04-27 03:03 18.52944 -77.91121 1101 ft 133 kts 353°
2026-04-27 03:04 18.53877 -77.91233 1364 ft 137 kts 353°
2026-04-27 03:04 18.54834 -77.91329 1622 ft 139 kts 353°
2026-04-27 03:04 18.55803 -77.91397 1872 ft 140 kts
2026-04-27 03:04 18.56641 -77.90928 2108 ft 141 kts 50°
2026-04-27 03:05 18.56829 -77.89950 2360 ft 140 kts 102°
2026-04-27 03:05 18.56512 -77.89370 2539 ft 138 kts 131°
2026-04-27 03:05 18.55804 -77.88694 2814 ft 138 kts 140°
2026-04-27 03:05 18.55063 -77.88048 3065 ft 139 kts 140°
2026-04-27 03:06 18.54080 -77.87194 3392 ft 136 kts 140°
2026-04-27 03:06 18.53360 -77.86561 3632 ft 133 kts 139°
2026-04-27 03:06 18.52703 -77.85897 3877 ft 129 kts 133°
2026-04-27 03:06 18.52128 -77.85179 4104 ft 128 kts 127°
2026-04-27 03:07 18.51778 -77.84676 4239 ft 129 kts 124°
2026-04-27 03:07 18.51280 -77.83887 4441 ft 129 kts 122°
2026-04-27 03:07 18.50804 -77.83078 4642 ft 130 kts 120°
2026-04-27 03:07 18.50338 -77.82256 4829 ft 132 kts 120°
2026-04-27 03:08 18.49865 -77.81405 4975 ft 136 kts 119°
2026-04-27 03:08 18.49394 -77.80548 5142 ft 138 kts 119°
2026-04-27 03:08 18.48913 -77.79670 5310 ft 139 kts 119°
2026-04-27 03:08 18.48424 -77.78774 5447 ft 143 kts 119°
2026-04-27 03:09 18.47920 -77.77849 5499 ft 149 kts 119°
2026-04-27 03:09 18.47394 -77.76883 5504 ft 153 kts 119°
2026-04-27 03:09 18.46858 -77.75899 5502 ft 155 kts 119°
2026-04-27 03:09 18.46331 -77.74931 5500 ft 154 kts 119°
2026-04-27 03:10 18.45796 -77.73949 5500 ft 154 kts 119°
2026-04-27 03:10 18.45264 -77.72974 5501 ft 153 kts 118°
2026-04-27 03:10 18.44738 -77.72009 5500 ft 152 kts 118°
2026-04-27 03:10 18.44212 -77.71043 5500 ft 151 kts 118°
2026-04-27 03:11 18.43693 -77.70090 5500 ft 151 kts 118°
2026-04-27 03:11 18.43169 -77.69126 5498 ft 152 kts 119°
2026-04-27 03:11 18.42643 -77.68161 5500 ft 152 kts 119°
2026-04-27 03:11 18.42114 -77.67191 5500 ft 153 kts 119°
2026-04-27 03:12 18.41584 -77.66218 5500 ft 153 kts 119°
2026-04-27 03:12 18.41059 -77.65257 5500 ft 153 kts 119°
2026-04-27 03:12 18.40529 -77.64285 5500 ft 153 kts 119°
2026-04-27 03:12 18.39999 -77.63313 5500 ft 153 kts 119°
2026-04-27 03:13 18.39466 -77.62337 5500 ft 153 kts 119°
2026-04-27 03:13 18.38936 -77.61365 5500 ft 153 kts 119°
2026-04-27 03:13 18.38405 -77.60392 5500 ft 153 kts 119°
2026-04-27 03:13 18.37874 -77.59419 5500 ft 153 kts 119°
2026-04-27 03:14 18.37342 -77.58444 5500 ft 153 kts 119°
2026-04-27 03:14 18.36812 -77.57474 5501 ft 153 kts 119°
2026-04-27 03:14 18.36281 -77.56501 5500 ft 153 kts 119°
2026-04-27 03:14 18.35751 -77.55531 5500 ft 153 kts 119°
2026-04-27 03:15 18.35225 -77.54567 5500 ft 153 kts 119°
2026-04-27 03:15 18.34696 -77.53598 5500 ft 153 kts 119°
2026-04-27 03:15 18.34167 -77.52631 5500 ft 153 kts 119°
2026-04-27 03:15 18.33637 -77.51660 5500 ft 153 kts 119°
2026-04-27 03:16 18.33311 -77.51062 5499 ft 153 kts 120°
2026-04-27 03:16 18.32780 -77.50090 5482 ft 152 kts 120°
2026-04-27 03:16 18.32255 -77.49133 5523 ft 149 kts 119°
2026-04-27 03:16 18.31746 -77.48201 5546 ft 149 kts 119°
2026-04-27 03:17 18.31226 -77.47250 5550 ft 150 kts 119°
2026-04-27 03:17 18.30704 -77.46295 5551 ft 150 kts 119°
2026-04-27 03:17 18.30181 -77.45340 5551 ft 151 kts 119°
2026-04-27 03:17 18.29660 -77.44387 5550 ft 151 kts 119°
2026-04-27 03:18 18.29134 -77.43426 5550 ft 151 kts 119°
2026-04-27 03:18 18.28609 -77.42465 5550 ft 151 kts 119°
2026-04-27 03:18 18.28085 -77.41508 5550 ft 151 kts 119°
2026-04-27 03:18 18.27567 -77.40561 5550 ft 151 kts 119°
2026-04-27 03:19 18.27042 -77.39602 5550 ft 151 kts 119°
2026-04-27 03:19 18.26517 -77.38643 5550 ft 151 kts 119°
2026-04-27 03:19 18.25992 -77.37685 5551 ft 152 kts 119°
2026-04-27 03:19 18.25452 -77.36699 5555 ft 158 kts 119°
2026-04-27 03:20 18.24898 -77.35688 5554 ft 161 kts 119°
2026-04-27 03:20 18.24331 -77.34654 5553 ft 164 kts 119°
2026-04-27 03:20 18.23759 -77.33609 5552 ft 166 kts 119°
2026-04-27 03:20 18.23180 -77.32553 5551 ft 167 kts 119°
2026-04-27 03:21 18.22597 -77.31490 5551 ft 167 kts 119°
2026-04-27 03:21 18.22013 -77.30425 5550 ft 168 kts 119°
2026-04-27 03:21 18.21437 -77.29374 5550 ft 168 kts 119°
2026-04-27 03:21 18.20854 -77.28312 5550 ft 168 kts 119°
2026-04-27 03:22 18.20268 -77.27244 5550 ft 168 kts 119°
2026-04-27 03:22 18.19684 -77.26180 5550 ft 168 kts 119°
2026-04-27 03:22 18.19098 -77.25111 5550 ft 168 kts 119°
2026-04-27 03:22 18.18512 -77.24043 5550 ft 168 kts 119°
2026-04-27 03:23 18.17934 -77.22991 5550 ft 168 kts 119°
2026-04-27 03:23 18.17348 -77.21923 5550 ft 168 kts 119°
2026-04-27 03:23 18.16762 -77.20856 5522 ft 170 kts 119°
2026-04-27 03:23 18.16172 -77.19782 5504 ft 170 kts 119°
2026-04-27 03:24 18.15582 -77.18708 5500 ft 169 kts 119°
2026-04-27 03:24 18.14995 -77.17638 5500 ft 169 kts 119°
2026-04-27 03:24 18.14406 -77.16567 5501 ft 170 kts 119°
2026-04-27 03:24 18.13814 -77.15489 5500 ft 170 kts 119°
2026-04-27 03:25 18.13230 -77.14428 5500 ft 170 kts 119°
2026-04-27 03:25 18.12636 -77.13347 5500 ft 170 kts 119°
2026-04-27 03:25 18.12042 -77.12266 5500 ft 170 kts 119°
2026-04-27 03:25 18.11451 -77.11191 5500 ft 170 kts 119°
2026-04-27 03:26 18.10855 -77.10107 5500 ft 170 kts 120°
2026-04-27 03:26 18.10264 -77.09032 5499 ft 170 kts 120°
2026-04-27 03:26 18.09669 -77.07984 5521 ft 168 kts 124°
2026-04-27 03:26 18.08816 -77.07114 5380 ft 172 kts 141°
2026-04-27 03:27 18.07881 -77.06357 5208 ft 165 kts 142°
2026-04-27 03:27 18.06989 -77.05635 5031 ft 157 kts 142°
2026-04-27 03:27 18.06152 -77.04929 4857 ft 152 kts 141°
2026-04-27 03:27 18.05350 -77.04223 4684 ft 149 kts 139°
2026-04-27 03:28 18.04575 -77.03507 4521 ft 147 kts 138°
2026-04-27 03:28 18.03836 -77.02792 4393 ft 143 kts 136°
2026-04-27 03:28 18.03131 -77.02053 4265 ft 142 kts 133°
2026-04-27 03:28 18.02536 -77.01248 4141 ft 141 kts 124°
2026-04-27 03:29 18.02038 -77.00367 4016 ft 140 kts 118°
2026-04-27 03:29 18.01603 -76.99442 3894 ft 143 kts 114°
2026-04-27 03:29 18.01192 -76.98472 3771 ft 146 kts 112°
2026-04-27 03:29 18.00796 -76.97483 3648 ft 148 kts 111°
2026-04-27 03:30 18.00404 -76.96480 3524 ft 148 kts 111°
2026-04-27 03:30 18.00022 -76.95490 3401 ft 148 kts 111°
2026-04-27 03:30 17.99637 -76.94489 3277 ft 147 kts 111°
2026-04-27 03:30 17.99253 -76.93489 3152 ft 147 kts 111°
2026-04-27 03:31 17.98873 -76.92500 3027 ft 146 kts 111°
2026-04-27 03:31 17.98494 -76.91509 2902 ft 145 kts 111°
2026-04-27 03:31 17.98118 -76.90529 2777 ft 144 kts 112°
2026-04-27 03:31 17.97744 -76.89557 2651 ft 144 kts 112°
2026-04-27 03:32 17.97370 -76.88590 2524 ft 139 kts 112°
2026-04-27 03:32 17.97023 -76.87696 2380 ft 125 kts 112°
2026-04-27 03:32 17.96715 -76.86901 2211 ft 113 kts 112°
2026-04-27 03:32 17.96429 -76.86166 2017 ft 105 kts 112°
2026-04-27 03:33 17.96164 -76.85481 1825 ft 99 kts 112°
2026-04-27 03:33 17.95905 -76.84811 1582 ft 99 kts 112°
2026-04-27 03:33 17.95644 -76.84139 1347 ft 98 kts 113°
2026-04-27 03:33 17.95390 -76.83484 1142 ft 96 kts 112°
2026-04-27 03:34 17.95146 -76.82856 974 ft 90 kts 112°
2026-04-27 03:34 17.94914 -76.82256 770 ft 90 kts 112°
2026-04-27 03:34 17.94677 -76.81644 562 ft 89 kts 112°
2026-04-27 03:34 17.94452 -76.81065 430 ft 85 kts 112°
2026-04-27 03:35 17.94233 -76.80499 294 ft 83 kts 112°
2026-04-27 03:35 17.94015 -76.79936 153 ft 82 kts 112°
2026-04-27 03:35 17.93808 -76.79394 44 ft 79 kts 112°
2026-04-27 03:35 17.93619 -76.78889 22 ft 70 kts 112°
2026-04-27 03:36 17.93441 -76.78437 20 ft 64 kts 113°
2026-04-27 03:36 17.93292 -76.78060 16 ft 40 kts 112°
2026-04-27 03:36 17.93213 -76.77851 16 ft 24 kts 97°
2026-04-27 03:36 17.93258 -76.77759 16 ft 9 kts 26°
2026-04-27 03:37 17.93274 -76.77752 16 ft 0 kts 20°